Meteo pe oră la Bolshoe Kuzemkino

Astăzi, 19 Mai, Miercuri

Timp Temperatura Precipitaţii Vânt Presiune Umiditate
00:00 +17°C° 0 mm 3 m/s 742 mmHg 77%
01:00 +17°C° 0 mm 3 m/s 742 mmHg 79%
02:00 +17°C° 0 mm 3 m/s 742 mmHg 82%
03:00 +17°C° 0 mm 3 m/s 742 mmHg 80%
04:00 +17°C° 0 mm 4 m/s 742 mmHg 78%
05:00 +18°C° 0 mm 4 m/s 742 mmHg 76%
06:00 +20°C° 0 mm 4 m/s 741 mmHg 70%
07:00 +21°C° 0 mm 5 m/s 741 mmHg 65%
08:00 +23°C° 0 mm 5 m/s 741 mmHg 59%
09:00 +24°C° 0 mm 6 m/s 742 mmHg 57%
10:00 +24°C° 0 mm 6 m/s 742 mmHg 54%
11:00 +26°C° 0 mm 7 m/s 742 mmHg 52%
12:00 +26°C° 0 mm 6 m/s 742 mmHg 49%
13:00 +27°C° 0 mm 6 m/s 742 mmHg 46%
14:00 +27°C° 0 mm 6 m/s 742 mmHg 43%
15:00 +26°C° 0 mm 5 m/s 742 mmHg 49%
16:00 +25°C° 0 mm 4 m/s 742 mmHg 54%
17:00 +24°C° 0 mm 3 m/s 742 mmHg 60%
18:00 +21°C° 0.1 mm 3 m/s 742 mmHg 68%
19:00 +20°C° 0.1 mm 2 m/s 742 mmHg 76%
20:00 +19°C° 0.1 mm 1 m/s 742 mmHg 83%
21:00 +18°C° 0.1 mm 2 m/s 742 mmHg 87%
22:00 +17°C° 0.1 mm 2 m/s 742 mmHg 90%
23:00 +16°C° 0.1 mm 2 m/s 742 mmHg 94%

Mâine, 20 Mai, Joi

Timp Temperatura Precipitaţii Vânt Presiune Umiditate
00:00 +16°C° 0 mm 2 m/s 742 mmHg 95%
01:00 +15°C° 0 mm 2 m/s 742 mmHg 96%
02:00 +15°C° 0 mm 2 m/s 741 mmHg 96%
03:00 +15°C° 0.3 mm 2 m/s 742 mmHg 95%
04:00 +16°C° 0.3 mm 3 m/s 742 mmHg 94%
05:00 +15°C° 0.3 mm 4 m/s 742 mmHg 93%
06:00 +17°C° 0.1 mm 4 m/s 741 mmHg 91%
07:00 +18°C° 0.1 mm 4 m/s 741 mmHg 88%
08:00 +19°C° 0.1 mm 3 m/s 741 mmHg 85%
09:00 +20°C° 0.3 mm 4 m/s 740 mmHg 82%
10:00 +21°C° 0.3 mm 5 m/s 740 mmHg 78%
11:00 +22°C° 0.3 mm 5 m/s 740 mmHg 74%
12:00 +22°C° 0.7 mm 5 m/s 740 mmHg 69%
13:00 +22°C° 0.7 mm 5 m/s 740 mmHg 63%
14:00 +22°C° 0.7 mm 5 m/s 739 mmHg 57%
15:00 +21°C° 0.1 mm 5 m/s 739 mmHg 60%
16:00 +20°C° 0.1 mm 5 m/s 739 mmHg 63%
17:00 +19°C° 0.1 mm 4 m/s 739 mmHg 66%
18:00 +18°C° 0.4 mm 4 m/s 739 mmHg 74%
19:00 +16°C° 0.4 mm 3 m/s 739 mmHg 82%
20:00 +14°C° 0.4 mm 3 m/s 739 mmHg 89%
21:00 +13°C° 0.2 mm 3 m/s 739 mmHg 91%
22:00 +13°C° 0.2 mm 3 m/s 739 mmHg 93%
23:00 +14°C° 0.2 mm 2 m/s 739 mmHg 95%

Poimâine, 21 Mai, Vineri

Timp Temperatura Precipitaţii Vânt Presiune Umiditate
00:00 +12°C° 0.3 mm 3 m/s 740 mmHg 95%
01:00 +12°C° 0.3 mm 3 m/s 740 mmHg 95%
02:00 +12°C° 0.3 mm 3 m/s 741 mmHg 96%
03:00 +11°C° 0.1 mm 3 m/s 741 mmHg 95%
04:00 +10°C° 0.1 mm 3 m/s 742 mmHg 94%
05:00 +10°C° 0.1 mm 3 m/s 743 mmHg 93%
06:00 +11°C° 0 mm 3 m/s 743 mmHg 88%
07:00 +11°C° 0 mm 3 m/s 744 mmHg 83%
08:00 +12°C° 0 mm 3 m/s 744 mmHg 78%
09:00 +13°C° 0 mm 3 m/s 745 mmHg 69%
10:00 +16°C° 0 mm 3 m/s 745 mmHg 61%
11:00 +17°C° 0 mm 3 m/s 745 mmHg 53%
12:00 +18°C° 0 mm 4 m/s 745 mmHg 48%
13:00 +18°C° 0 mm 4 m/s 745 mmHg 43%
14:00 +19°C° 0 mm 4 m/s 745 mmHg 38%
15:00 +19°C° 0 mm 4 m/s 746 mmHg 41%
16:00 +18°C° 0 mm 3 m/s 746 mmHg 43%
17:00 +18°C° 0 mm 3 m/s 746 mmHg 46%
18:00 +16°C° 0 mm 3 m/s 746 mmHg 51%
19:00 +14°C° 0 mm 3 m/s 747 mmHg 55%
20:00 +14°C° 0 mm 2 m/s 747 mmHg 60%
21:00 +12°C° 0 mm 2 m/s 747 mmHg 65%
22:00 +10°C° 0 mm 2 m/s 748 mmHg 70%
23:00 +8°C° 0 mm 2 m/s 748 mmHg 75%

22 Mai, Sâmbătă

Timp Temperatura Precipitaţii Vânt Presiune Umiditate
00:00 +8°C° 0 mm 2 m/s 748 mmHg 78%
01:00 +7°C° 0 mm 2 m/s 749 mmHg 81%
02:00 +6°C° 0 mm 2 m/s 749 mmHg 84%
03:00 +7°C° 0 mm 2 m/s 749 mmHg 81%
04:00 +8°C° 0 mm 2 m/s 750 mmHg 79%
05:00 +9°C° 0 mm 1 m/s 750 mmHg 76%
06:00 +10°C° 0 mm 2 m/s 750 mmHg 67%
07:00 +13°C° 0 mm 2 m/s 750 mmHg 58%
08:00 +15°C° 0 mm 2 m/s 750 mmHg 49%
09:00 +16°C° 0 mm 2 m/s 750 mmHg 45%
10:00 +17°C° 0 mm 2 m/s 750 mmHg 41%
11:00 +18°C° 0 mm 2 m/s 750 mmHg 38%
12:00 +19°C° 0 mm 2 m/s 750 mmHg 38%
13:00 +19°C° 0 mm 3 m/s 750 mmHg 37%
14:00 +20°C° 0 mm 3 m/s 750 mmHg 37%
15:00 +19°C° 0 mm 3 m/s 750 mmHg 39%
16:00 +19°C° 0 mm 3 m/s 749 mmHg 41%
17:00 +19°C° 0 mm 2 m/s 749 mmHg 44%
18:00 +17°C° 0 mm 2 m/s 749 mmHg 53%
19:00 +15°C° 0 mm 2 m/s 749 mmHg 62%
20:00 +13°C° 0 mm 2 m/s 749 mmHg 71%
21:00 +12°C° 0 mm 2 m/s 749 mmHg 72%
22:00 +12°C° 0 mm 2 m/s 749 mmHg 74%
23:00 +10°C° 0 mm 2 m/s 749 mmHg 76%

23 Mai, Duminică

Timp Temperatura Precipitaţii Vânt Presiune Umiditate
00:00 +10°C° 0 mm 2 m/s 749 mmHg 78%
01:00 +9°C° 0 mm 2 m/s 749 mmHg 80%
02:00 +9°C° 0 mm 2 m/s 749 mmHg 83%
03:00 +10°C° 0 mm 2 m/s 749 mmHg 83%
04:00 +12°C° 0 mm 2 m/s 749 mmHg 83%
05:00 +12°C° 0 mm 2 m/s 748 mmHg 83%
06:00 +13°C° 0 mm 3 m/s 748 mmHg 75%
07:00 +15°C° 0 mm 4 m/s 747 mmHg 66%
08:00 +17°C° 0 mm 5 m/s 747 mmHg 58%
09:00 +19°C° 0 mm 5 m/s 746 mmHg 57%
10:00 +20°C° 0 mm 5 m/s 746 mmHg 56%
11:00 +20°C° 0 mm 5 m/s 745 mmHg 54%
12:00 +20°C° 0 mm 4 m/s 744 mmHg 60%
13:00 +19°C° 0 mm 4 m/s 744 mmHg 66%
14:00 +19°C° 0 mm 4 m/s 743 mmHg 72%
15:00 +18°C° 0.2 mm 4 m/s 743 mmHg 79%
16:00 +17°C° 0.2 mm 4 m/s 742 mmHg 86%
17:00 +15°C° 0.2 mm 4 m/s 742 mmHg 94%
18:00 +15°C° 0 mm 4 m/s 741 mmHg 94%
19:00 +15°C° 0 mm 4 m/s 741 mmHg 94%
20:00 +15°C° 0 mm 4 m/s 740 mmHg 94%
21:00 +14°C° 0 mm 4 m/s 740 mmHg 95%
22:00 +14°C° 0 mm 3 m/s 740 mmHg 95%
23:00 +14°C° 0 mm 3 m/s 740 mmHg 96%

24 Mai, Luni

Timp Temperatura Precipitaţii Vânt Presiune Umiditate
00:00 +13°C° 0.1 mm 3 m/s 741 mmHg 95%
01:00 +12°C° 0.1 mm 4 m/s 741 mmHg 94%
02:00 +11°C° 0.1 mm 4 m/s 742 mmHg 93%
03:00 +11°C° 0 mm 3 m/s 742 mmHg 91%
04:00 +11°C° 0 mm 3 m/s 743 mmHg 89%
05:00 +11°C° 0 mm 3 m/s 743 mmHg 87%
06:00 +12°C° 0 mm 3 m/s 744 mmHg 79%
07:00 +13°C° 0 mm 3 m/s 744 mmHg 71%
08:00 +14°C° 0 mm 4 m/s 744 mmHg 63%
09:00 +15°C° 0 mm 4 m/s 744 mmHg 58%
10:00 +15°C° 0 mm 4 m/s 744 mmHg 53%
11:00 +17°C° 0 mm 4 m/s 745 mmHg 48%
12:00 +17°C° 0 mm 3 m/s 745 mmHg 45%
13:00 +18°C° 0 mm 3 m/s 745 mmHg 42%
14:00 +18°C° 0 mm 3 m/s 745 mmHg 39%
15:00 +18°C° 0 mm 3 m/s 745 mmHg 40%
16:00 +18°C° 0 mm 2 m/s 745 mmHg 42%
17:00 +18°C° 0 mm 2 m/s 745 mmHg 43%
18:00 +16°C° 0 mm 2 m/s 745 mmHg 51%
19:00 +14°C° 0 mm 2 m/s 746 mmHg 59%
20:00 +13°C° 0 mm 2 m/s 746 mmHg 68%
21:00 +12°C° 0 mm 2 m/s 746 mmHg 70%
22:00 +12°C° 0 mm 1 m/s 746 mmHg 73%
23:00 +11°C° 0 mm 1 m/s 746 mmHg 75%
Arată mai mult

Formular de consimțământ

Meteoprog și furnizorii noștri de servicii pot stoca și accesa date personale, precum cookies, identificatori de dispozitiv sau alte tehnologii similare pe dispozitivul dumneavoastră și procesa astfel de date pentru a personaliza conținutul și reclamele, dar și pentru a oferi caracteristici de social media și pentru a analiza traficul.

  • Stocarea și/sau accesarea informațiilor pe dispozitivul dumneavoastră

    Cookies, identificatori de dispozitiv sau alte informații pot fi stocate sau accesate pe dispozitiv în scopurile indicate mai sus.

  • Reclame și conținut personalizat, evaluarea reclamelor și a conținutului, informații despre audiențe și dezvoltarea produselor

    Reclamele și conținutul pot fi personalizate pe baza unui profil. Pot fi adăugate date suplimentare pentru a personaliza mai bine reclamele și conținutul. Performanța reclamelor și conținutului poate fi măsurată. Pot fi obținute informații despre utilizatorii care au văzut reclamele și conținutul. Aceste date pot fi utilizate pentru a dezvolta sau îmbunătăți experiența utilizatorilor, sistemele și software-ul.

Dând clic pe ‘Sunt de acord’, permiteți utilizarea cookie-urilor menționate, a identificatorilor de dispozitiv, balizelor web sau altor tehnologii similare. Setările pot fi modificate din browser-ul dispozitivului dumneavoastră.

În anumite scopuri, interesele legitime pot prima asupra consimțământului. Puteți citi mai multe informații în acest sens în Politica privind Confidențialitatea Datelor și Cookie.